STARLINK-32846, 62867

Orbit data source: Space-Track

STARLINK-32846, 62867 is a payload satellite owned by SpaceX/Seattle (US) in LEO that was launched on Sat, 01 Feb 2025 UTC via an FALCON 9 launch vehicle from the Air Force Western Test Range (AFWTR). Payload-class satellites include a variety of spacecraft equipped with specific instruments for various scientific and technological missions. These include communications satellites like Starlink; space stations such as the ISS; scientific satellites like the Hubble; Earth observation satellites from companies like Planet Labs, Umbra, and HawkEye 360; GPS; miniature CubeSats for education and research; and military/defense satellites.

Loading next visibility...
Identifier
62867, 2025-022P
Orbit
LEO
Country
Flag of USUS
Related business
Manufacturer
SpaceX/Seattle
Mission
Operational Commercial Communications
Bus & Motor
STARLINK V2M, Unknown motor
Mass
730 kg wet, ~700 kg dry
Launch date (UTC)
2025-02-01 (1 year ago)
Launch vehicle
FALCON 9
Launch site
Air Force Western Test Range (AFWTR)
Object type
Payload
Rocket body
Debris
Shape & HBR
Box + 2 Pan, 17.7 m
Radar Cross Section
33.884 m², Large (>1 m²)

Expand to show TLE details & history
Last TLE update: 17 hours ago

TLE from 17 hours ago
0 STARLINK-32846
1 62867U 25022P   26036.37327131  .00034293  00000-0  11640-2 0  9999
2 62867  53.1582 279.6128 0001317  80.5796 279.5353 15.30218790 56952
Epoch: 2026-02-05T08:57Z
TLE epoch observation values (Epoch: 2026-02-05T08:57:30.641Z)
Latitude
-0.00005°
Longitude
9.70866°
Altitude
475.909 km
Speed
7.629 km/s
True Right ascension
18h 38m 27s
True Declination
0° 00' 00"
Sunlit
Object was in daylight at epoch
Visualization orbit readout
Latitude
Unknown
Longitude
Unknown
Altitude
Unknown
Speed
Unknown
Apparent Right ascension
Unknown
Apparent Declination
Unknown
Sunlit
N/A
Visualization observer readout
Local Sidereal Time
04:26:34
Azimuth
Unknown
Elevation
Unknown
Doppler factor
Unknown
Orbital elements
Apogee altitude
476.318 km
Perigee altitude
474.513 km
Semi-major axis
6,853.553 km
Eccentricity
0.00013
Inclination
53.1582°
RAAN
279.6128°
Arg. of periapsis
80.5796°
True anomaly
279.52042°
Mean anomaly
279.5353°
Eccentric anomaly
279.52786°
Mean motion
3.82534 °/min
Orbital period
94.11 mins
BSTAR
0.001164
Loading maneuver chart data...
Computing Atmospheric mass density...
Loading historical data...
Loading historical data...
Loading historical data...
Loading historical data...
Loading historical data...
Loading historical data...
Loading historical data...

Documentation

Showing up to 5 results
|